Home > Weather > Scarborough > Past weeks

Flag for Trinidad and Tobago Past Weather in Scarborough, Trinidad and Tobago — Yesterday and Last 2 Weeks

Now
81 °F

Passing clouds.


Feels Like: 85 °F
Forecast: 76 / 87 °F
Wind: No wind

Location: Crown Pt./ Scarborou

Current Time: Jul 24, 2016 at 10:25:52 PM

Latest Report: Jul 24, 2016 at 9:00 PM


Visibility: N/A

Pressure: 29.95 "Hg

Humidity: 74%

Dew Point: 72 °F

Location of ScarboroughLocation

Past Weather in Scarborough — Graph

°F

Scarborough Temperature Yesterday

Maximum temperature yesterday: 88 °F (at 11:00 AM)
Minimum temperature yesterday: 79 °F (at 12:00 AM)
Average temperature yesterday: 82 °F

High & Low Weather Summary for the Past Weeks

 TemperatureHumidityPressure
High90 °F (Jul 10, 2:00 PM)94% (Jul 12, 1:00 AM)30.04 "Hg (Jul 12, 1:00 AM)
Low77 °F (Jul 17, 5:00 AM)49% (Jul 17, 11:00 AM)29.86 "Hg (Jul 15, 2:00 AM)
Average83 °F76%29.94 "Hg
* Reported Jul 9 9:00 PM — Jul 24 9:00 PM, Scarborough, Weather by CustomWeather, © 2016

Note: Actual official high and low records may vary slightly from our data, if they occured in-between our weather recording intervals... More about our weather records

Advertising

Scarborough Weather History for the Previous 24 Hours

Scroll right to see more
 ConditionsComfort  
Time TempWeatherWind HumidityBarometerVisibility
9:00 PM
Sun, Jul 24
81 °FPassing clouds.No wind74%29.95 "HgN/A
8:00 PM81 °FPassing clouds.No wind79%29.92 "HgN/A
7:00 PM84 °FPassing clouds.7 mph66%29.89 "HgN/A
6:00 PM84 °FPassing clouds.9 mph66%29.89 "HgN/A
5:00 PM86 °FPassing clouds.16 mph62%29.89 "HgN/A
4:00 PM88 °FPassing clouds.14 mph59%29.89 "HgN/A
3:00 PM88 °FPassing clouds.16 mph62%29.92 "HgN/A
2:00 PM88 °FPassing clouds.21 mph62%29.92 "HgN/A
1:00 PM88 °FPassing clouds.22 mph62%29.95 "HgN/A
12:00 PM88 °FSprinkles. Passing clouds.22 mph62%29.95 "HgN/A
11:00 AM88 °FPassing clouds.18 mph62%29.98 "HgN/A
10:00 AM88 °FPassing clouds.16 mph59%29.98 "HgN/A
9:00 AM86 °FPassing clouds.17 mph62%29.98 "HgN/A
8:00 AM84 °FPassing clouds.7 mph66%29.95 "HgN/A
7:00 AM81 °FPassing clouds.3 mph74%29.92 "HgN/A
5:00 AM79 °FPassing clouds.No wind79%29.92 "HgN/A
4:00 AM81 °FPassing clouds.No wind74%29.92 "HgN/A
2:00 AM81 °FPassing clouds.No wind79%29.92 "HgN/A
1:00 AM79 °FPassing clouds.No wind79%29.92 "HgN/A
12:00 AM81 °FPassing clouds.No wind74%29.95 "HgN/A
11:00 PM
Sat, Jul 23
81 °FPassing clouds.No wind79%29.95 "HgN/A
10:00 PM82 °FPassing clouds.10 mph70%29.95 "HgN/A
Weather by CustomWeather, © 2016

See weather overviewHow to use our weather pages